Weather History for KRNP - November, 2012

Change the Weather History Date:

Sunday, November 11, 2012

  Actual Average (KFNT) Record (KFNT)
Temperature  
Mean Temperature 62 °F 41 °F  
Max Temperature 69 °F 49 °F 70 °F (2012)
Min Temperature 56 °F 33 °F 14 °F (1926)
Degree Days  
Heating Degree Days 2 24  
Month to date heating degree days 247  
Since 1 July heating degree days 943  
Cooling Degree Days 0 0  
Month to date cooling degree days 0  
Year to date cooling degree days 531  
Growing Degree Days 12 (Base 50)    
Moisture  
Dew Point 45 °F    
Average Humidity 52    
Maximum Humidity 65    
Minimum Humidity 36    
Precipitation  
Precipitation 0.00 in 0.09 in 1.40 in (1995)
Month to date precipitation 0.99  
Year to date precipitation 27.77  
Snow  
Snow 0.00 in 0.00 in 1.00 in (1984)
Month to date snowfall 0.3  
Since 1 July snowfall 0.7  
Since 1 September snowfall 0.7  
Snow Depth -    
Sea Level Pressure  
Sea Level Pressure 29.98 in    
Wind  
Wind Speed 14 mph (South)    
Max Wind Speed 23 mph    
Max Gust Speed 34 mph    
Visibility 10 miles    
Events      
T = Trace of Precipitation, MM = Missing Value Source: NWS Daily Summary

Daily Weather History Graph

Daily Weather History Graph

Search for Another Location

Airport or City:

Trip Planner

Search our weather history database for the weather conditions in past years. The results will help you decide how hot, cold, wet, or windy it might be!

Date:

Astronomy

Nov. 11, 2012 Rise Set
Actual Time 7:24 AM EST 5:16 PM EST
Civil Twilight 6:54 AM EST 5:46 PM EST
Nautical Twilight 6:20 AM EST 6:20 PM EST
Astronomical Twilight 5:46 AM EST 6:54 PM EST
Moon 4:34 AM EST (11/11) 3:41 PM EST (11/11)
Length of Visible Light 10h 52m
Length of Day
9h 51m
Waning Crescent, 7% of the Moon is Illuminated
Nov 11
Waning Crescent
Nov 13
New
Nov 20
First Quarter
Nov 28
Full
Dec 6
Last Quarter

Hourly Weather History & Observations

Time (EST) Temp. Dew Point Humidity Pressure Visibility Wind Dir Wind Speed Gust Speed Precip Events Conditions
12:15 AM 63.0 °F 46.0 °F 54% 29.98 in 10.0 mi SSW 15.0 mph - N/A   Clear
12:35 AM 63.1 °F 45.7 °F 53% 29.98 in 10.0 mi SSW 12.7 mph 20.7 mph N/A   Clear
12:55 AM 62.8 °F 45.9 °F 54% 29.99 in 10.0 mi SSW 12.7 mph 23.0 mph N/A   Clear
1:15 AM 62.6 °F 45.9 °F 54% 29.99 in 10.0 mi SSW 13.8 mph - N/A   Clear
1:35 AM 62.1 °F 46.0 °F 56% 29.99 in 10.0 mi SSW 11.5 mph 18.4 mph N/A   Clear
1:54 AM 61.3 °F 46.4 °F 58% 29.99 in 10.0 mi South 13.8 mph 18.4 mph N/A   Clear
2:15 AM 61.5 °F 46.6 °F 58% 30.00 in 10.0 mi SSW 12.7 mph 17.3 mph N/A   Clear
2:35 AM 61.2 °F 46.8 °F 59% 30.00 in 10.0 mi SSW 12.7 mph 17.3 mph N/A   Clear
2:55 AM 61.0 °F 46.9 °F 60% 30.01 in 10.0 mi SSW 10.4 mph 18.4 mph N/A   Clear
3:15 AM 60.1 °F 46.9 °F 62% 30.02 in 10.0 mi South 11.5 mph - N/A   Clear
3:35 AM 59.7 °F 46.8 °F 62% 30.02 in 10.0 mi South 9.2 mph - N/A   Clear
3:55 AM 59.4 °F 46.8 °F 63% 30.02 in 10.0 mi South 11.5 mph 17.3 mph N/A   Clear
4:15 AM 59.2 °F 46.8 °F 63% 30.02 in 10.0 mi SSW 11.5 mph - N/A   Clear
4:35 AM 59.0 °F 46.6 °F 63% 30.03 in 10.0 mi South 11.5 mph - N/A   Clear
4:55 AM 59.0 °F 46.6 °F 63% 30.04 in 10.0 mi SSW 10.4 mph - N/A   Clear
5:15 AM 59.0 °F 46.4 °F 63% 30.05 in 10.0 mi SSW 10.4 mph - N/A   Clear
5:35 AM 59.0 °F 46.0 °F 62% 30.06 in 10.0 mi SSW 9.2 mph - N/A   Clear
5:55 AM 58.5 °F 45.5 °F 62% 30.06 in 10.0 mi SSW 9.2 mph 16.1 mph N/A   Clear
6:35 AM 57.4 °F 44.8 °F 63% 30.06 in 10.0 mi South 9.2 mph - N/A   Clear
6:55 AM 57.2 °F 44.6 °F 63% 30.06 in 10.0 mi South 8.1 mph - N/A   Clear
7:15 AM 57.2 °F 44.6 °F 63% 30.06 in 10.0 mi South 10.4 mph - N/A   Clear
7:35 AM 56.3 °F 44.6 °F 65% 30.05 in 10.0 mi South 9.2 mph - N/A   Clear
7:55 AM 56.3 °F 44.6 °F 65% 30.05 in 10.0 mi South 10.4 mph - N/A   Clear
8:35 AM 57.9 °F 44.8 °F 62% 30.05 in 10.0 mi South 10.4 mph 18.4 mph N/A   Clear
8:55 AM 58.5 °F 44.8 °F 60% 30.05 in 10.0 mi South 10.4 mph 18.4 mph N/A   Clear
9:15 AM 59.2 °F 44.6 °F 58% 30.05 in 10.0 mi South 11.5 mph 23.0 mph N/A   Clear
9:35 AM 59.2 °F 45.0 °F 59% 30.05 in 10.0 mi South 15.0 mph 24.2 mph N/A   Clear
9:55 AM 60.1 °F 45.5 °F 59% 30.05 in 10.0 mi South 13.8 mph 23.0 mph N/A   Clear
10:35 AM 62.1 °F 45.7 °F 55% 30.05 in 10.0 mi South 12.7 mph 20.7 mph N/A   Clear
10:55 AM 62.1 °F 45.9 °F 55% 30.05 in 10.0 mi South 13.8 mph 19.6 mph N/A   Clear
11:15 AM 63.7 °F 46.2 °F 53% 30.04 in 10.0 mi South 16.1 mph 20.7 mph N/A   Clear
11:35 AM 64.4 °F 46.4 °F 52% 30.03 in 10.0 mi South 17.3 mph 24.2 mph N/A   Clear
11:55 AM 64.8 °F 46.8 °F 52% 30.02 in 10.0 mi South 18.4 mph 24.2 mph N/A   Clear
12:15 PM 64.8 °F 47.1 °F 53% 30.01 in 10.0 mi South 13.8 mph 24.2 mph N/A   Clear
12:35 PM 64.9 °F 47.1 °F 52% 30.00 in 10.0 mi South 12.7 mph 20.7 mph N/A   Clear
1:15 PM 66.4 °F 48.6 °F 53% 29.97 in 10.0 mi South 13.8 mph 23.0 mph N/A   Clear
1:34 PM 69.4 °F 48.4 °F 47% 29.97 in 10.0 mi South 21.9 mph 34.5 mph N/A   Clear
1:55 PM 69.6 °F 48.6 °F 47% 29.97 in 10.0 mi South 20.7 mph 32.2 mph N/A   Clear
2:15 PM 68.9 °F 48.0 °F 47% 29.96 in 10.0 mi SSW 18.4 mph 28.8 mph N/A   Clear
2:35 PM 69.1 °F 48.2 °F 47% 29.96 in 10.0 mi South 20.7 mph 28.8 mph N/A   Clear
2:55 PM 68.7 °F 48.0 °F 48% 29.96 in 10.0 mi South 20.7 mph 31.1 mph N/A   Clear
3:15 PM 68.5 °F 48.0 °F 48% 29.94 in 10.0 mi South 16.1 mph 25.3 mph N/A   Clear
3:35 PM 68.9 °F 47.3 °F 46% 29.94 in 10.0 mi SSE 20.7 mph 27.6 mph N/A   Clear
3:55 PM 68.5 °F 47.3 °F 47% 29.94 in 10.0 mi South 18.4 mph 28.8 mph N/A   Clear
4:15 PM 68.2 °F 47.5 °F 47% 29.93 in 10.0 mi South 13.8 mph 26.5 mph N/A   Clear
4:35 PM 67.6 °F 47.5 °F 48% 29.94 in 10.0 mi South 15.0 mph 25.3 mph N/A   Clear
4:55 PM 66.6 °F 47.1 °F 50% 29.94 in 10.0 mi South 21.9 mph 26.5 mph N/A   Clear
5:15 PM 65.7 °F 46.4 °F 50% 29.94 in 10.0 mi SSE 16.1 mph 24.2 mph N/A   Clear
5:35 PM 64.4 °F 45.7 °F 51% 29.94 in 10.0 mi SSE 17.3 mph 24.2 mph N/A   Clear
5:55 PM 63.9 °F 44.4 °F 49% 29.94 in 10.0 mi SSE 16.1 mph 21.9 mph N/A   Clear
6:14 PM 63.7 °F 43.3 °F 48% 29.92 in 10.0 mi SSE 17.3 mph 23.0 mph N/A   Clear
6:35 PM 63.5 °F 42.8 °F 47% 29.93 in 10.0 mi South 15.0 mph 25.3 mph N/A   Clear
6:55 PM 63.0 °F 43.0 °F 48% 29.93 in 10.0 mi South 17.3 mph 26.5 mph N/A   Clear
7:15 PM 63.0 °F 43.7 °F 49% 29.94 in 10.0 mi South 19.6 mph 29.9 mph N/A   Clear
7:35 PM 62.8 °F 44.8 °F 52% 29.94 in 10.0 mi South 23.0 mph 31.1 mph N/A   Clear
7:55 PM 62.6 °F 44.4 °F 51% 29.93 in 10.0 mi South 19.6 mph 28.8 mph N/A   Clear
8:15 PM 62.6 °F 41.9 °F 47% 29.90 in 10.0 mi SSE 18.4 mph 31.1 mph N/A   Clear
8:35 PM 62.6 °F 39.2 °F 42% 29.92 in 10.0 mi South 18.4 mph 25.3 mph N/A   Clear
8:55 PM 62.6 °F 37.9 °F 40% 29.92 in 10.0 mi South 15.0 mph 25.3 mph N/A   Clear
9:15 PM 62.8 °F 37.0 °F 38% 29.93 in 10.0 mi South 19.6 mph 27.6 mph N/A   Clear
9:35 PM 62.8 °F 36.1 °F 37% 29.93 in 10.0 mi South 17.3 mph 29.9 mph N/A   Scattered Clouds
9:54 PM 63.1 °F 35.8 °F 36% 29.93 in 10.0 mi South 20.7 mph 29.9 mph N/A   Mostly Cloudy
10:15 PM 63.0 °F 36.1 °F 37% 29.92 in 10.0 mi South 18.4 mph 31.1 mph N/A   Mostly Cloudy
10:35 PM 62.8 °F 36.5 °F 38% 29.92 in 10.0 mi South 17.3 mph 28.8 mph N/A   Mostly Cloudy
10:55 PM 63.0 °F 36.0 °F 37% 29.91 in 10.0 mi South 19.6 mph 29.9 mph N/A   Mostly Cloudy
11:15 PM 62.6 °F 36.0 °F 37% 29.89 in 10.0 mi South 20.7 mph 28.8 mph N/A   Mostly Cloudy
11:34 PM 62.6 °F 36.7 °F 38% 29.90 in 10.0 mi South 16.1 mph 27.6 mph N/A   Mostly Cloudy
11:55 PM 62.6 °F 37.4 °F 39% 29.89 in 10.0 mi South 17.3 mph 26.5 mph N/A   Overcast